User: anonymous   Login
Location: Unspecified
(0.0000°N, 0.0000°E)
Time: 13:22:59
(UTC+00:00)
Language:

USA 234 - Orbit

View from above orbital plane
View from above orbital plane
View from above satellite
View from above satellite

Ground track
Ground track

The orbit data is extracted from the following two-line orbital elements,

1 38109U 12014A   21009.73414857 0.00000000  00000-0  00000-0 0    03
2 38109 122.9865  77.4072 0007839 341.3059  18.6941 13.41430873    08
Epoch (UTC): 09 January 2021 17:37:10
Eccentricity: 0.0007839
inclination: 122.9865°
perigee height: 1098 km
apogee height: 1110 km
right ascension of ascending node: 77.4072°
argument of perigee: 341.3059°
revolutions per day: 13.41430873
mean anomaly at epoch: 18.6941°
orbit number at epoch: 0

The dashed part of the orbit path shows where the satellite is in the earth's shadow,  

DLR